Regional Weather Roundup
Issued by NWS

Home | Current Version | Previous Version | Text Only | Print | Product List | Glossary On
Versions: 1 2 3 4 5 6 7 8 9 10 11 12 13 14 15 16 17 18 19 20 21 22 23 24 25 26 27 28 29 30 31 32 33 34 35 36 37 38 39 40 41 42 43 44 45 46 47 48 49 50
829
ASUS43 KMPX 240010
RWRMN
WEATHER ROUNDUP FOR MINNESOTA
NATIONAL WEATHER SERVICE TWIN CITIES/CHANHASSEN MN
700 PM CDT MON MAY 23 2016


NOTE: "FAIR" INDICATES FEW OR NO CLOUDS BELOW 12,000 FEET WITH NO
SIGNIFICANT WEATHER AND/OR OBSTRUCTIONS TO VISIBILITY. N/A MEANS
CURRENT SKY AND/OR WEATHER CONDITIONS ARE NOT AVAILABLE.

MNZ060>063-068>070-240100-
   Twin Cities Metro

CITY           SKY/WX    TMP DP  RH WIND       PRES   REMARKS
TWIN CITIES    CLOUDY    75  60  59 S13G20    29.74F
6HR MIN TEMP:  75; 6HR MAX TEMP:  84;

ST PAUL        CLOUDY    74  61  63 S12       29.74F
CRYSTAL        CLOUDY    75  60  59 S10G21    29.72F
BLAINE         CLOUDY    75  63  64 S13G21    29.74S
EDEN PRAIRIE   CLOUDY    76  60  57 S20G26    29.72F
6HR MIN TEMP:  76; 6HR MAX TEMP:  84;

SOUTH ST PAUL  CLOUDY    74  59  59 S13G18    29.74F
LAKE ELMO      FAIR      72  61  68 S12G17    29.76F
$$
MNZ001>005-007-008-013>017-022>024-027-028-240100-
   Northwest Minnesota

CITY           SKY/WX    TMP DP  RH WIND       PRES   REMARKS
BEMIDJI        MOSUNNY   76  51  42 NW7       29.71S
HALLOCK        MOSUNNY   79  43  27 SW6       29.64S
ROSEAU         CLOUDY    79  43  27 W10G17    29.67S
WARROAD        CLOUDY    75  50  41 CALM      29.68R
THIEF RVR FALL MOSUNNY   75  52  43 SE3       29.70S
CROOKSTON      CLOUDY    79  46  31 SW3       29.68S
FOSSTON        MOSUNNY   75  46  35 CALM      29.71R
DETROIT LAKES  CLOUDY    77  46  33 CALM      29.70F
MOORHEAD       CLOUDY    79  45  29 NW16G22   29.67R
PARK RAPIDS    CLOUDY    77  52  41 SW6       29.69F
MAHNOMEN       CLOUDY    74  55  51 SE6       29.69S
$$
MNZ006-009>011-018-025>026-240100-
   North Central Minnesota

CITY           SKY/WX    TMP DP  RH WIND       PRES   REMARKS
BAUDETTE       CLOUDY    77  43  29 W6        29.68R
FLAG ISLAND    CLOUDY    70  54  56 SE8       29.65R
INTL FALLS     CLOUDY    74  53  48 W3        29.68R
6HR MIN TEMP:  66; 6HR MAX TEMP:  80; 6HR PCP:  0.06;

WASKISH        MOSUNNY   73  55  53 SW6       29.70S
BIG FORK       MOSUNNY   75  50  41 W3        29.70S
LONGVILLE      CLOUDY    73  57  56 CALM      29.70F
GRAND RAPIDS     N/A    N/A N/A N/A MISG        N/A
CRANE LAKE     CLOUDY    61  61 100 S5        29.73S
ORR            CLOUDY    72  61  68 CALM      29.69S
COOK           CLOUDY    70  59  68 NW3       29.72S
WALKER         CLOUDY    73  56  57 CALM      29.70S
$$
MNZ012-019>021-037-240100-
   Northeast Minnesota

CITY           SKY/WX    TMP DP  RH WIND       PRES   REMARKS
DULUTH         CLOUDY    72  57  59 SW9       29.74S
6HR MIN TEMP:  72; 6HR MAX TEMP:  79;

ELY            PTSUNNY   73  55  53 SW7       29.73R
HIBBING        CLOUDY    72  57  59 SW6       29.71R
EVELETH        MOSUNNY   72  55  56 S8        29.74R
DULUTH HARBOR  CLOUDY    73  63  68 S9        29.73S
TWO HARBORS      N/A     75  61  60 SW7       29.72R
SILVER BAY     CLOUDY    73  55  53 S8        29.72R
GRAND MARAIS     N/A     50  41  71 CALM      29.70S
G MARAIS ARPRT CLOUDY    70  54  56 SW5       29.75S
$$
MNZ029>031-032-039>041-046>048-054>057-064-240100-
   West Central Minnesota

CITY           SKY/WX    TMP DP  RH WIND       PRES   REMARKS
FERGUS FALLS   CLOUDY    79  48  34 S9        29.65R
WHEATON        MOSUNNY   79  57  47 SW7       29.69F
MORRIS         CLOUDY    77  55  47 SW6       29.68F
ALEXANDRIA     LGT RAIN  75  55  49 S6        29.70F
ELBOW LAKE     FAIR      76  53  45 SW6       29.69S
WADENA         CLOUDY    75  54  46 SW6       29.69F
GLENWOOD       CLOUDY    73  61  64 S5        29.71F
APPLETON       CLOUDY    79  52  38 SW3       29.68S
BENSON         CLOUDY    75  55  50 W6        29.68F
ORTONVILLE     CLOUDY    77  54  44 W5        29.69F
MADISON        CLOUDY    75  55  50 W7        29.69F
WILLMAR        FAIR      72  64  78 CALM      29.71F
$$
MNZ033>034-036-042>043-049>051-058-059-240100-
   Central Minnesota

CITY           SKY/WX    TMP DP  RH WIND       PRES   REMARKS
ST CLOUD       LGT RAIN  66  65  96 SE3       29.73R
6HR MIN TEMP:  66; 6HR MAX TEMP:  78; 6HR PCP:  0.07;

SAUK CENTRE    MOCLDY    66  63  88 SE6       29.71F
PAYNESVILLE    CLOUDY    70  63  79 CALM      29.72F
AITKIN         MIX PCPN  70  61  73 S3        29.70F
PINE RIVER     CLOUDY    75  55  50 S5        29.73F
BRAINERD       CLOUDY    68  62  81 S5        29.71F
STAPLES        CLOUDY    73  61  64 S8        29.70F
LONG PRAIRIE   FAIR      68  61  77 SE7       29.71F
LITTLE FALLS   LGT RAIN  66  63  88 CALM      29.73S
LITCHFIELD     CLOUDY    70  68  94 E7        29.73R
BUFFALO        CLOUDY    68  62  80 SW24G40   29.79R THUNDER
MAPLE LAKE     TSTM      64  62  91 N7        29.75R VSB 1
HUTCHINSON     TSTM      66  64  93 S5        29.74R
$$
MNZ037-044-045-052-053-240100-
   East Central Minnesota

CITY           SKY/WX    TMP DP  RH WIND       PRES   REMARKS
PRINCETON      CLOUDY    70  64  83 CALM      29.75R
MORA           DRIZZLE   68  63  83 CALM      29.76R
CAMBRIDGE      CLOUDY    72  61  68 CALM      29.73R
RUSH CITY      CLOUDY    70  65  85 S3        29.74S
MOOSE LAKE     LGT RAIN  70  59  68 SW5       29.72F
HINCKLEY       CLOUDY    73  63  68 CALM      29.74S
CLOQUET        PTSUNNY   72  55  56 SW7       29.74F
MCGREGOR       CLOUDY    66  61  82 SW5       29.74F
$$
MNZ071>073-080-081-089-090-097-098-240100-
   Southwest Minnesota

CITY           SKY/WX    TMP DP  RH WIND       PRES   REMARKS
MONTEVIDEO     CLOUDY    79  61  53 W8        29.71F
GRANITE FALLS  CLOUDY    77  62  60 S12       29.71S
CANBY          CLOUDY    77  61  57 SW6       29.71F
MARSHALL       CLOUDY    74  62  66 S13       29.71F
REDWOOD FALLS  TSTM      69  65  86 S6        29.72R VSB 1/2
OLIVIA         CLOUDY    63  55  77 SE7       29.71S
PIPESTONE      CLOUDY    72  63  73 SW7       29.75R
WINDOM         TSTM      70  64  83 S10       29.78R
WORTHINGTON    TSTM      60  58  92 SW13      29.80R
JACKSON        LGT SNOW  70  63  78 S12       29.80R
TRACY          CLOUDY    73  63  68 S8        29.74R
SLAYTON        CLOUDY    69  64  84 SE8       29.76R
$$
MNZ065>067-074>077-082>085-091>093-240100-
   South Central Minnesota

CITY           SKY/WX    TMP DP  RH WIND       PRES   REMARKS
MANKATO        CLOUDY    70  59  68 S18G25    29.75F
NEW ULM        CLOUDY    72  63  73 S20G25    29.72F
ST JAMES       CLOUDY    66  57  72 S17G23    29.75F
FAIRMONT       CLOUDY    72  59  64 S21G29    29.77S
GLENCOE        CLOUDY    75  64  69 S12G22    29.72R
FARIBAULT      CLOUDY    70  59  68 S14       29.76F
OWATONNA       LGT RAIN  68  59  73 S14       29.78F
WASECA         LGT RAIN  68  59  73 S13       29.80R
ALBERT LEA     CLOUDY    66  63  88 W5        29.80S
$$
MNZ078>079-086>088-094>096-240100-
   Southeast Minnesota

CITY           SKY/WX    TMP DP  RH WIND       PRES   REMARKS
ROCHESTER      CLOUDY    65  62  90 S15G28    29.82F
6HR MIN TEMP:  64; 6HR MAX TEMP:  84; 6HR PCP:  0.26;

RED WING       CLOUDY    72  57  60 SW10      29.75F
STANTON        CLOUDY    71  58  63 S8        29.74F
DODGE CENTER   CLOUDY    66  57  72 S15       29.81R
WINONA         CLOUDY    73  57  56 W10G21    29.82R
AUSTIN         CLOUDY    64  61  88 SE7       29.80F
PRESTON        LGT RAIN  63  60  89 S6        29.86F
$$
ABBREVIATIONS USED IN REMARKS
   TC - TEMPERATURES IN CELSIUS
  WCI - WIND CHILL INDEX
   HX - HEAT INDEX
  VSB - VISIBILITY
$$




USA.gov is the U.S. government's official web portal to all federal, state and local government web resources and services.